This is the latest recevied weather packets stored in our database for station/object KH6HHG. If no packets are shown the sender has not sent any weather packets the latest 10 day(s).
| Time | Temp. | Humidity | Pressure | Rain* | Wind** | Luminosity | Snow |
|---|---|---|---|---|---|---|---|
| 1777679799 | 24.44° C | 76% | 1011.6 hPa | 0 mm | - | - | - |
| 1777679499 | 24.44° C | 75% | 1011.8 hPa | 0 mm | - | - | - |
| 1777679199 | 24.44° C | 73% | 1011.8 hPa | 0 mm | - | - | - |
| 1777678899 | 24.44° C | 72% | 1012 hPa | 0 mm | - | - | - |
| 1777678599 | 24.44° C | 71% | 1012.1 hPa | 0 mm | - | - | - |
| 1777678299 | 24.44° C | 73% | 1012.1 hPa | 0 mm | - | - | - |
| 1777677999 | 23.89° C | 74% | 1012.3 hPa | 0 mm | - | - | - |
| 1777677699 | 23.89° C | 75% | 1012.2 hPa | 0 mm | - | - | - |
| 1777677399 | 23.89° C | 74% | 1012.5 hPa | 0 mm | - | - | - |
| 1777677099 | 24.44° C | 75% | 1012.4 hPa | 0 mm | - | - | - |
| 1777676799 | 23.89° C | 74% | 1012.5 hPa | 0 mm | - | - | - |
| 1777676498 | 23.33° C | 77% | 1012.6 hPa | 0 mm | - | - | - |
| 1777676198 | 23.33° C | 78% | 1012.6 hPa | 0 mm | - | - | - |
| 1777675898 | 23.89° C | 77% | 1012.7 hPa | 0 mm | - | - | - |
| 1777675598 | 23.89° C | 77% | 1012.7 hPa | 0 mm | - | - | - |
| 1777675298 | 23.89° C | 79% | 1012.7 hPa | 0 mm | - | - | - |
| 1777674998 | 23.33° C | 76% | 1012.8 hPa | 0 mm | - | - | - |
| 1777674699 | 23.89° C | 79% | 1012.9 hPa | 0 mm | - | - | - |
| 1777674399 | 23.89° C | 78% | 1013 hPa | 0 mm | - | - | - |
| 1777674099 | 25° C | 75% | 1012.9 hPa | 0 mm | - | - | - |
| 1777673798 | 25° C | 72% | 1012.8 hPa | 0 mm | - | - | - |
| 1777673498 | 24.44° C | 72% | 1013.1 hPa | 0 mm | - | - | - |
| 1777673198 | 24.44° C | 72% | 1013 hPa | 0 mm | - | - | - |
| 1777672898 | 23.89° C | 72% | 1013.2 hPa | 0 mm | - | - | - |
| 1777672598 | 24.44° C | 70% | 1013.2 hPa | 0 mm | - | - | - |
* Rain latest hour (hover to see other rain measurements)
** Current wind speed in m/s (hover to see current wind gust speed)